Weather in Al Buraimi

Oman     24°15′32″N   55°47′01″E
temp.,
°C
wind,
m/s
gust,
m/s
humid.,
%
clouds,
%
prec.,
mm/h
press.,
hPa
HPBL,
m
27 february, sat
sat2701:00+14nnw34870 0.0 101433
04:00+13n33910 0.0 101325
07:00+13n23920 0.0 101623
10:00+20nnw55520 0.0 1017713
13:00+25nw55270 0.0 10141161
16:00+26nw76230 0.0 10121433
19:00+18nw68550 0.0 1014132
22:00+15nnw34810 0.0 101537
28 february, sun
sun2801:00+12n22890 0.0 101523
04:00+11nne22910 0.0 101323
07:00+11ne12920 0.0 101523
10:00+20nnw45470 0.0 1016633
13:00+26nw55200 0.0 10141056
16:00+27nw56160 0.0 10121246
19:00+19nnw58370 0.0 1014110
22:00+16n34550 0.0 101532
1 march, mon
mon101:00+14ne22580 0.0 101423
04:00+13nw11540 0.0 101323
07:00+14nne12490 0.0 101523
10:00+26s34160 0.0 1016470
13:00+31ssw55140 0.0 10131387
16:00+32wsw55160 0.0 10121931
19:00+25nw56210 0.0 101359
22:00+21nne33350 0.0 101431
2 march, tue
tue201:00+20e23380 0.0 101424
04:00+21sse56380 0.0 101367
07:00+20sse565027 0.0 101598
10:00+28s793332 0.0 1017850
13:00+32ssw67240 0.0 10141521
16:00+33ssw67200 0.0 10122171
19:00+28sw45280 0.0 101326
22:00+26sse45306 0.0 101328
3 march, wed
wed301:00+25sse563118 0.0 101356
04:00+23ssw57349 0.0 1012108
07:00+21s711550 0.0 1014198
10:00+28ssw78320 0.0 1016791
13:00+32wsw79210 0.0 10141661
16:00+33w78200 0.0 10122109
19:00+25nnw69350 0.0 1013145
22:00+21nne34500 0.0 101441